Zurück zum Katalog

OPS 5644

AktivMilitärPO
NORAD 10033·PAYLOAD·🇺🇸 United States

Gestartet Jun 5, 1977 von Vandenberg Space Force Base

Loading…

Nächste Überflüge (nächste 24 Stunden)

TLE

AktuellSource: Space-Track

Epoche: Sep 14, 2026, 09:50 UTC

1 10033U 77044A   26257.41028477  .00000139  00000-0  70150-4 0  9994
2 10033  99.1087 310.2011 0037146 331.0818  28.8305 14.31498976380926

Verfolge OPS 5644 in Echtzeit mit AllMySat

Download on the App Store